Погода в Георгиевске

Погода в Георгиевске : погода сейчас, прогноз погоды и архив. Всё, что Вы хотите узнать о погоде в Георгиевске!

Поиск расширенной информации на нашем сайте:

Другие новости

Новости СМИ2

Главная страница сайта

Новости сайта

03.07.2017

Напоминаем, что на нашем специализированном сайте Метеоцентр.Азия вы можете получить высокодетализированные автоматические прогнозы погоды по пунктам России, СНГ и мира в авиационном формате (включающие направление и скорость ветра, видимость, явления погоды, количество и форму облачности, нижнюю и верхнюю границу облачности).


Погода в Георгиевске - сегодня

Время (UTC), дата Ветер
(°,м/с) 
Видим.   Явления Облачность Т
(°С)
Тd
(°С)
f(%) Тe
(°С)
Pmin
(гПа)
dP
(гПа)
Po
(мм)
O2
(г/м3)
Тmin Tmax R s Состояние
почвы
12 15.04.18 070 (В) 20000 м    3/0 средняя 
[Ac trans]
+13.9 -6.1 24 +14  1025.2  -1.4  743  285           
15 15.04.18 090 (В) 20000 м    ясно 
+12.2 -6.3 27 +13  1025.3  0.1  742  287    +14.1       
18 15.04.18 тихо ()   20000 м    ясно 
+6.5 -5.9 41 +7  1027.6  1.5  744  293           
21 15.04.18 тихо ()   20000 м    ясно 
+3 -3.5 62 +3  1028.3  0.3  744  297           
00 16.04.18 тихо ()   20000 м    ясно 
+0.5 -4 72 +1  1027.8  -0.9  743  299           
06 16.04.18 100 (В) 20000 м    ясно 
+11.5 -4.4 33 +13  1026.6  -0.5  743  288           
09 16.04.18 100 (В) 20000 м    ясно 
+14.9 -4.9 25 +16  1024.4  -1.8  742  284           
12 16.04.18 130 (ЮВ) 20000 м    8/0 верхняя 
[Cs]
+16 -5.6 22 +17  1023  -1.2  741  283           
18 16.04.18 тихо ()   20000 м    ясно 
+8.4 -3.6 43 +8  1024.2  0.7  741  290           
00 17.04.18 тихо ()   20000 м    ясно 
+3.1 -2.7 66 +3  1023.7  -0.8  740  295           
03 17.04.18 290 (З) 20000 м    6/0 средняя 
[Ac trans]
+5.5 -2.7 55 +6  1023.6  0.2  741  293  +3.1        сухая 
06 17.04.18 090 (В) 20000 м    3/0 средняя 
[Ac trans]
+13.8 -3.3 30 +15  1023.2  0.7  741  285           
09 17.04.18 120 (ЮВ) 20000 м    ясно 
+18.5 -4.3 21 +20  1022  -0.7  741  280           
12 17.04.18 070 (В) 20000 м    4/0 верхняя 
[Ci]
+19.7 -4.8 19 +21  1020.7  -1.1  740  278           
18 17.04.18 тихо ()   20000 м    ясно 
+10.5 -1.6 43 +11  1023  0.9  741  288           
21 17.04.18 тихо ()   20000 м    ясно 
+8.5 -2.7 45 +9  1023.7  0.4  741  290           
00 18.04.18 тихо ()   20000 м    ясно 
+4.6 -1 67 +5  1024.5  0.3  741  294           
06 18.04.18 140 (ЮВ) 20000 м    10/5 1000 м средняя, верхняя 
[Sc|Ac trans|Ci]
+17.1 -0.8 30 +18  1022.3  0.1  741  281           
09 18.04.18 090 (В) 20000 м    10/0 средняя, верхняя 
[Ac trans|Ci]
+19.7 -0.5 26 +21  1020.9  -1  740  278           
12 18.04.18 060 (СВ) 20000 м    10/0 верхняя 
[Cs]
+20.6 -1.3 23 +21  1019.2  -1.5  739  277           
18 18.04.18 тихо ()   20000 м    10/0 средняя 
[Ac und]
+12.9 +2.3 48 +13  1018.9  -0.4  738  284           
21 18.04.18 тихо ()   20000 м    10/0 средняя 
[Ac und]
+11.2 +0.8 49 +11  1017.9  -1.1  737  285           
00 19.04.18 280 (З) 20000 м    10/0 средняя 
[Ac As]
+9.5 +1.7 58 +11  1016.4  -1.7  736  286           
06 19.04.18 310 (СЗ) 20000 м    10/0 средняя, верхняя 
[Ac trans|Ci]
+18.8 +2.9 35 +20  1012.4  -1.2  734  276           
09 19.04.18 310 (СЗ) 20000 м    10/0 средняя 
[Ac As]
+16.5 +4.2 44 +17  1011.4  -1.3  733  278           
Время (UTC), дата Ветер
(°,м/с) 
Видим.   Явления Облачность Т
(°С)
Тd
(°С)
f(%) Тe
(°С)
Pmin
(гПа)
dP
(гПа)
Po
(мм)
O2
(г/м3)
Тmin Tmax R s Состояние
почвы

Для получения пояснительной информации подведите курсор к названию столбца.

ПОГОДА в Георгиевске - архив

Всё, что Вы хотите узнать о погоде в Георгиевске - удобно и подробно!

Выберите нужную дату (начиная с 1 января 2015* года) и нажмите кнопку "Найти".
Будут отображены архивные сводки погоды по пункту Георгиевск, начиная с указанной даты.


Отображать данные в формате CSV (для использования в таблицах Excel)


Внимание! Наш архив погоды предназначен исключительно для личного некоммерческого использования в познавательных целях. Если Вам необходимы официальные справки о состоянии погоды (для производственных, юридических, коммерческих и т.п. целей), обращайтесь в органы Росгидромета.

*Примечание: данная дата относится к архиву по метеостанциям СССР (Россия, СНГ, Балтия).
Архив по метеостанциям Зарубежной Европы и Азии (кроме Китая) хранится 10 дней, по другим регионам земного шара (Китай, Африка, Америка, Австралия, Океания) - 1 день.

Георгиевск - район местоположения метеостанции


Название, широта, долгота, высота метеостанции:
Георгиевск 44.2°ш. 43.5°д. 302 м над ур. моря [Российская Федерация]

Дополнительная информация

В oтличие oт бoльшинства пoгoдных сайтoв мы публикуем пoдрoбную метеoинфoрмацию в детальнoм прoфессиoнальнoм фoрмате.

Характеристики температуры и влажнoсти вoздуха измеряются на высoте 2 м в тени вдали oт зданий и деревьев.
Скoрoсть ветра измеряется на высoте 10 м (на урoвне рoста челoвека скoрoсть ветра ниже в 1.5-2 раза). Если метеoстанция нахoдится в гoрoде или в лесу, тo скoрoсть ветра занижена на 2-4 м/с пo сравнению с oткрытым местoм. Скoрoсть ветра над акватoриями крупных рек и oзёр, а также на вершинах хoлмoв на 2-5 м/с выше, чем в oбычных услoвиях.
Атмoсфернoе давление в разных тoчках местнoсти мoжет значительнo oтличаться oт давления на метеoстанции, в зависимoсти oт услoвий рельефа (при пoдъёме на 10 м давление пoнижается примернo на 1 мм рт.ст.).